Wind_Speed
18 18 18 19 19 15 11 9 9 9 7 7 6 6 6 6 7 5 4 5 5 4 4 4 4 4 4 4 5 5 5 6 7 7 7 8 9 9 8 9 9 10 10 10 10 10 9 9 9
18 18 20 21 16 12 11 11 10 8 8 7 7 7 6 7 7 6 5 6 5 5 5 5 5 5 4 4 5 5 5 6 6 7 8 8 8 8 8 9 9 9 9 10 10 9 9 9 9
18 20 23 19 13 11 11 11 11 9 8 8 8 8 6 7 7 7 7 7 5 6 6 5 5 4 4 4 5 5 5 5 5 7 8 8 9 8 8 9 9 9 9 9 9 8 8 8 8
20 24 22 16 13 12 12 12 11 10 10 9 9 9 8 7 7 7 7 7 7 7 6 5 5 5 5 5 5 4 4 5 6 8 9 9 9 8 8 8 9 9 8 8 8 7 7 7 7
23 25 19 15 14 14 14 13 13 11 12 11 10 10 10 9 9 8 7 8 7 7 7 6 6 6 6 6 5 5 5 6 8 9 10 9 9 9 8 9 8 8 8 7 7 7 7 7 7
25 22 15 14 15 14 13 13 13 12 12 12 12 11 12 11 10 10 10 8 8 8 7 7 7 7 7 6 6 5 6 7 8 9 9 9 9 9 8 8 8 8 8 8 7 7 7 7 6
21 18 13 13 14 14 14 14 14 13 12 12 13 12 12 12 12 11 10 10 10 9 9 8 8 7 7 6 6 7 7 7 7 8 8 8 9 9 8 8 8 9 8 8 7 7 7 7 6
17 14 10 11 13 13 14 14 14 14 14 13 13 13 12 12 12 12 12 11 11 11 10 9 8 7 7 6 7 7 7 6 6 7 8 8 8 8 7 8 8 8 8 7 7 6 6 6 5
14 12 9 10 13 14 15 15 15 15 15 14 14 13 13 13 13 12 12 12 11 11 10 10 9 8 7 7 7 7 6 6 6 7 7 7 8 8 7 8 8 8 8 8 7 6 5 5 4
10 9 9 10 12 14 15 15 16 15 15 15 15 14 14 14 13 13 13 13 12 11 10 9 9 9 8 7 7 7 6 6 6 7 7 7 7 7 6 6 7 8 7 6 7 6 5 4 4
8 9 11 11 13 15 16 17 16 15 16 15 15 15 14 14 14 14 13 13 12 11 10 9 8 8 7 7 7 6 6 6 6 6 7 6 6 7 6 6 7 7 6 7 5 5 5 4 4
8 11 12 12 13 15 15 16 16 16 16 16 16 16 15 15 15 14 13 12 12 11 10 9 8 8 7 7 6 5 5 5 6 6 6 6 6 5 6 6 5 6 6 6 5 4 4 3 3
7 10 12 13 12 13 14 15 16 17 17 16 15 15 15 15 14 14 13 12 11 11 10 9 9 8 7 7 6 6 5 6 6 5 5 5 5 5 6 6 6 6 6 6 5 4 4 3 2
5 6 10 12 12 13 14 15 16 16 16 16 16 16 16 15 14 13 13 12 11 10 10 10 9 9 9 7 7 7 7 6 6 6 5 4 5 6 5 6 6 6 6 5 5 4 4 3 2
3 5 8 10 12 12 12 14 15 15 16 16 16 17 16 15 14 13 13 12 11 10 9 10 9 9 9 8 8 8 8 7 7 8 6 5 5 5 6 6 6 6 5 5 4 4 4 3 2
2 3 4 8 11 11 11 12 13 14 15 15 16 16 16 16 15 13 13 12 11 10 9 9 9 9 9 8 8 7 8 7 7 7 7 7 6 5 5 5 5 5 4 4 3 3 3 2 0
2 1 2 4 7 9 10 11 12 13 13 14 15 15 16 15 15 14 13 12 11 10 9 9 8 8 8 7 7 7 7 7 6 7 7 6 5 4 4 4 4 4 3 3 2 2 2 1 1
2 3 4 3 3 6 8 10 12 14 13 13 13 14 14 15 15 15 13 12 11 10 9 9 8 7 7 7 7 7 8 7 6 6 6 5 5 4 4 3 2 2 2 2 2 1 1 1 2
5 5 5 5 2 2 5 8 11 13 13 13 12 13 14 14 14 14 14 13 12 11 10 9 8 7 7 7 6 6 6 6 6 6 5 5 4 4 2 2 2 2 3 2 1 1 1 2 2
8 7 6 6 5 3 3 6 7 11 12 12 11 12 12 12 13 13 13 13 12 11 10 9 8 7 6 6 6 6 6 6 6 6 5 5 5 4 3 2 2 3 3 2 2 2 3 3 3
10 9 6 6 6 6 6 8 7 7 9 10 9 9 9 9 10 11 11 12 12 11 10 10 9 7 6 6 6 6 6 6 5 5 5 5 4 4 3 3 2 2 3 3 4 4 4 4 4
12 10 9 8 8 7 8 12 9 7 8 9 9 9 8 7 8 9 10 11 11 11 10 10 9 8 7 6 6 6 5 5 5 5 4 4 4 4 3 3 2 3 3 4 5 5 6 6 6
15 13 11 9 10 10 9 11 10 8 7 8 9 8 8 6 6 8 9 9 10 10 10 10 9 9 7 6 6 5 5 5 5 5 4 4 4 4 3 3 4 4 4 5 5 6 6 7 7
17 13 12 11 12 14 11 11 13 10 10 10 8 7 7 6 6 6 7 7 8 9 9 9 9 8 8 7 6 6 6 5 5 5 5 4 4 4 4 4 5 5 6 6 7 7 7 7 7
17 14 13 13 13 13 10 10 13 13 11 10 9 8 7 7 6 5 6 7 7 7 8 8 8 8 7 7 6 6 6 6 6 6 6 5 5 6 6 6 6 6 7 8 8 8 8 8 9
20 17 15 14 13 14 12 10 11 14 12 11 10 9 9 8 8 7 6 6 7 7 7 7 7 7 7 6 6 6 6 6 6 6 6 6 6 7 7 7 7 7 8 9 9 9 9 10 10
20 19 16 16 16 15 13 11 12 14 13 12 11 11 10 10 9 8 7 7 7 7 7 7 7 7 7 6 6 6 6 6 6 7 7 7 7 7 7 7 8 8 9 10 10 10 10 11 11
21 19 19 20 18 16 14 14 13 14 13 12 13 12 11 10 10 9 7 7 8 8 7 7 7 7 8 7 7 6 6 6 6 7 7 8 8 8 8 8 8 9 9 9 9 10 10 10 11
22 22 22 21 19 16 15 16 14 15 13 14 16 14 12 11 11 10 9 7 8 8 8 8 7 8 8 8 8 7 7 7 7 7 7 7 8 8 9 8 8 9 9 9 10 10 10 11 11
24 23 22 22 22 20 17 17 13 15 15 16 16 15 13 12 11 10 10 10 10 10 10 9 9 9 9 9 9 8 8 8 7 7 7 8 9 10 10 9 9 9 10 10 10 10 11 12 12
Wind_Direction
60 60 58 53 49 38 26 25 23 26 24 25 24 32 44 60 67 68 71 79 100 102 100 101 112 119 129 138 140 143 148 154 153 154 155 153 148 145 139 135 132 129 127 124 119 119 113 113 114
61 60 56 50 40 29 25 26 27 29 30 33 34 37 44 64 70 72 75 79 89 94 95 94 104 112 122 127 126 132 148 155 156 158 158 156 153 147 140 134 134 132 129 125 119 120 115 112 112
61 59 54 43 30 26 29 31 34 34 36 42 44 42 52 56 61 76 83 84 86 88 90 93 101 112 117 114 119 125 141 152 163 163 160 155 152 148 143 139 138 135 128 126 123 121 119 115 112
60 54 49 35 28 31 37 39 40 39 42 44 48 48 51 49 55 68 79 83 84 86 92 95 96 100 105 100 108 120 126 130 143 154 153 149 146 146 146 142 141 138 134 133 132 125 124 121 118
62 55 43 26 28 32 35 38 39 41 45 45 49 52 51 52 53 60 73 83 84 86 90 92 91 91 94 94 103 112 120 126 135 142 142 142 143 142 143 142 142 141 139 137 135 131 130 126 123
59 53 35 22 29 34 36 39 42 44 48 48 51 54 60 60 60 61 65 75 79 83 87 89 92 93 93 97 103 105 115 126 135 140 141 138 139 142 143 146 147 148 145 143 138 136 132 129 125
60 57 35 19 26 32 37 40 41 44 48 49 52 54 60 66 64 65 68 69 74 79 84 89 92 94 96 102 106 112 115 120 127 135 140 137 142 143 144 149 149 151 152 152 148 141 137 132 126
64 59 38 19 28 34 39 43 43 46 49 51 52 55 59 62 63 64 67 69 73 78 83 85 87 93 98 100 103 112 117 116 126 135 137 137 139 141 139 147 150 153 150 149 146 140 135 134 128
61 65 48 31 34 38 41 42 45 46 48 51 54 58 60 62 63 64 65 68 74 77 78 79 78 92 108 103 102 106 115 119 120 129 131 134 139 142 140 147 150 152 153 150 146 141 140 142 138
57 68 45 40 43 43 43 44 45 45 48 52 56 60 62 62 61 62 66 70 73 75 75 74 76 81 89 95 98 100 108 117 121 126 131 133 141 147 146 149 149 150 149 148 149 146 140 141 138
58 61 52 46 47 47 45 44 43 42 46 50 52 56 59 61 60 61 64 67 68 71 71 68 72 73 78 87 94 92 95 110 124 131 136 140 144 145 143 147 150 152 148 149 148 153 151 146 144
50 51 48 46 47 49 49 46 44 43 44 46 50 52 56 60 60 59 63 66 66 67 66 64 62 67 72 83 92 95 91 105 120 127 140 146 148 141 142 142 147 155 153 154 154 148 152 151 150
52 51 44 40 43 47 52 46 41 40 44 46 48 49 52 54 57 58 60 62 65 66 65 62 62 62 62 70 80 87 93 93 103 115 129 138 138 140 144 146 155 159 159 159 152 150 159 159 156
56 41 40 34 36 43 43 40 36 36 39 44 47 48 49 49 51 53 55 55 59 61 59 59 60 60 57 65 71 79 84 83 90 102 113 122 127 126 136 138 147 156 160 150 138 140 139 146 147
49 36 28 25 28 37 36 34 32 31 35 40 44 42 45 46 46 47 48 51 52 55 56 57 55 54 56 57 65 73 72 74 82 88 97 110 122 123 124 128 133 143 149 146 139 138 139 142 151
341 7 28 18 13 21 23 29 28 27 31 35 38 40 41 43 43 43 44 44 46 50 52 51 50 50 52 54 62 65 58 75 82 81 88 98 107 119 120 117 119 127 143 144 134 128 130 123 117
253 286 330 4 12 8 11 16 18 25 26 32 35 37 38 40 40 41 42 41 41 43 45 43 43 44 47 52 55 57 61 74 77 76 81 85 91 105 111 112 114 119 130 135 125 128 117 65 15
276 291 286 322 13 1 359 2 8 20 20 27 33 34 35 36 37 38 39 39 38 38 38 40 41 42 45 49 52 53 61 69 72 66 71 77 82 94 100 97 107 110 108 114 103 93 61 355 348
233 252 277 305 335 352 348 354 358 6 10 16 25 29 30 32 35 36 36 37 37 37 36 37 39 40 43 48 51 51 55 63 67 68 69 69 71 79 85 79 81 82 76 71 41 360 338 323 322
240 253 246 264 300 305 340 342 343 349 355 3 13 22 23 28 32 32 32 33 33 34 34 35 36 37 41 45 46 46 48 55 58 61 61 57 60 58 57 67 65 57 41 23 5 352 337 327 320
236 246 249 267 281 284 297 307 304 327 337 344 356 10 20 26 29 27 26 28 30 31 31 31 30 32 33 35 37 40 46 51 50 51 50 44 47 48 48 48 43 22 7 355 357 351 346 338 333
236 236 242 254 269 280 279 284 293 305 325 330 341 351 5 17 21 20 21 21 24 28 29 27 25 25 29 31 34 38 40 39 35 31 27 28 34 33 30 28 16 1 351 342 336 340 341 334 331
231 233 238 245 258 265 272 288 289 289 305 321 324 335 341 352 9 13 12 15 17 20 22 23 26 27 25 25 28 31 31 29 22 15 12 14 14 9 9 7 2 358 354 345 339 337 337 335 335
229 230 241 247 252 256 260 279 287 292 298 307 313 319 324 330 349 356 357 4 9 13 15 17 22 26 26 26 26 24 24 23 18 12 7 6 3 4 357 350 351 348 343 339 335 332 332 332 333
227 231 246 251 249 255 259 269 282 290 298 299 302 303 310 312 320 331 345 347 353 1 6 9 11 14 17 20 23 21 18 17 18 15 10 6 358 356 350 339 338 337 335 330 326 322 324 326 326
224 223 236 250 258 263 255 254 274 286 289 286 291 294 299 302 306 311 324 330 333 342 350 355 357 1 1 3 8 9 10 9 12 14 9 6 358 353 349 341 336 331 329 326 320 316 318 320 321
225 219 226 248 259 263 256 254 252 268 274 272 279 287 289 292 295 298 304 315 318 324 333 340 342 345 348 350 352 353 353 355 358 1 359 358 356 353 350 346 340 335 330 329 324 319 317 317 320
223 222 225 233 244 251 250 249 248 256 269 281 289 290 283 285 292 298 297 309 311 315 319 325 330 332 333 335 339 342 343 340 344 348 348 348 349 349 346 341 338 337 335 332 331 330 329 326 323
224 219 221 229 233 248 258 256 252 266 271 276 277 275 276 281 284 293 295 299 306 310 310 314 317 320 325 329 328 330 331 329 330 339 345 343 343 344 340 332 330 333 336 335 334 332 330 330 329
230 227 223 228 231 233 255 267 256 268 273 274 277 272 273 275 280 285 287 291 295 302 304 305 308 312 314 317 318 317 319 324 324 327 333 332 332 335 334 328 326 328 330 330 328 326 327 328 328
Height
5877 5876 5874 5872 5871 5872 5870 5869 5867 5866 5865 5863 5862 5860 5859 5859 5859 5859 5857 5855 5856 5856 5856 5857 5857 5857 5858 5859 5859 5860 5861 5862 5862 5863 5864 5866 5867 5869 5870 5871 5872 5873 5874 5875 5877 5878 5878 5879 5880
5880 5878 5876 5875 5876 5875 5873 5871 5869 5868 5867 5865 5863 5862 5861 5860 5859 5858 5857 5857 5857 5857 5858 5858 5858 5859 5859 5860 5860 5861 5862 5862 5863 5864 5865 5866 5868 5869 5871 5872 5873 5874 5875 5877 5878 5879 5880 5881 5882
5882 5879 5878 5880 5880 5878 5876 5874 5871 5869 5868 5867 5866 5865 5863 5862 5861 5859 5859 5859 5858 5859 5859 5859 5860 5860 5860 5861 5861 5862 5862 5863 5863 5864 5865 5867 5869 5870 5871 5873 5874 5876 5877 5878 5880 5880 5881 5882 5883
5885 5881 5882 5885 5883 5880 5878 5876 5874 5872 5870 5869 5868 5866 5864 5863 5862 5861 5861 5860 5860 5860 5860 5861 5861 5861 5861 5862 5862 5862 5863 5863 5863 5864 5866 5868 5870 5871 5872 5874 5875 5877 5878 5880 5881 5881 5882 5883 5884
5885 5885 5889 5888 5885 5883 5881 5878 5876 5874 5872 5871 5870 5868 5866 5866 5864 5863 5862 5862 5862 5862 5862 5862 5863 5863 5863 5863 5863 5863 5863 5863 5864 5865 5867 5869 5871 5872 5874 5875 5876 5878 5880 5881 5882 5883 5884 5885 5885
5885 5891 5895 5892 5889 5886 5884 5881 5879 5877 5875 5873 5872 5870 5868 5868 5866 5865 5865 5864 5864 5864 5864 5864 5864 5864 5865 5865 5865 5865 5865 5865 5866 5867 5869 5871 5872 5873 5875 5876 5877 5879 5881 5882 5883 5884 5885 5885 5886
5894 5897 5899 5896 5892 5889 5887 5884 5882 5880 5878 5876 5874 5872 5871 5870 5869 5868 5867 5866 5866 5866 5866 5866 5866 5866 5866 5866 5867 5867 5867 5868 5868 5869 5871 5872 5873 5875 5876 5877 5878 5880 5881 5883 5884 5885 5886 5887 5887
5900 5902 5901 5898 5895 5892 5889 5887 5885 5882 5880 5879 5877 5875 5873 5872 5871 5870 5869 5869 5869 5868 5869 5868 5868 5868 5868 5868 5869 5869 5869 5870 5871 5871 5873 5874 5875 5876 5877 5878 5879 5880 5882 5884 5885 5886 5887 5888 5888
5904 5906 5903 5901 5898 5895 5892 5890 5887 5885 5883 5881 5879 5878 5876 5875 5874 5873 5872 5871 5871 5871 5871 5871 5871 5870 5870 5870 5870 5871 5871 5872 5872 5873 5874 5875 5876 5878 5878 5880 5881 5882 5883 5885 5886 5887 5888 5889 5889
5908 5907 5905 5903 5900 5898 5895 5892 5890 5888 5886 5884 5882 5881 5879 5878 5877 5876 5875 5874 5874 5874 5874 5873 5873 5873 5872 5872 5873 5873 5873 5874 5874 5875 5876 5877 5878 5879 5880 5881 5882 5883 5884 5886 5887 5888 5889 5889 5890
5909 5908 5907 5905 5902 5900 5898 5896 5894 5891 5890 5887 5886 5884 5882 5881 5880 5879 5878 5877 5877 5877 5877 5876 5876 5875 5875 5875 5875 5875 5875 5875 5876 5877 5878 5879 5879 5880 5881 5882 5883 5885 5885 5886 5887 5888 5889 5890 5890
5911 5910 5908 5907 5905 5903 5901 5900 5898 5895 5893 5891 5889 5887 5886 5884 5883 5882 5881 5881 5880 5879 5879 5878 5878 5878 5877 5877 5877 5877 5877 5877 5878 5878 5879 5880 5881 5882 5882 5884 5885 5885 5886 5887 5888 5888 5890 5890 5891
5913 5912 5911 5909 5908 5906 5904 5903 5901 5898 5896 5894 5892 5891 5888 5887 5886 5885 5884 5883 5883 5882 5881 5881 5881 5880 5880 5879 5879 5879 5879 5879 5879 5880 5881 5881 5882 5883 5884 5885 5886 5886 5887 5888 5888 5889 5890 5890 5891
5915 5913 5911 5911 5910 5908 5907 5905 5903 5901 5899 5897 5895 5894 5892 5890 5889 5888 5887 5886 5886 5885 5884 5883 5883 5883 5882 5882 5881 5881 5881 5881 5881 5881 5882 5882 5883 5884 5885 5886 5886 5887 5888 5888 5889 5890 5890 5891 5892
5915 5914 5915 5913 5912 5911 5910 5908 5906 5904 5902 5900 5898 5896 5895 5893 5892 5891 5890 5889 5888 5887 5886 5886 5885 5885 5884 5884 5884 5883 5883 5883 5883 5883 5883 5883 5884 5885 5886 5886 5887 5887 5888 5889 5889 5890 5891 5892 5892
5916 5916 5915 5916 5915 5913 5913 5911 5909 5906 5905 5903 5901 5899 5898 5896 5895 5893 5892 5891 5890 5889 5889 5888 5888 5887 5886 5886 5886 5886 5885 5885 5885 5885 5885 5885 5886 5886 5887 5887 5888 5888 5889 5889 5890 5890 5891 5892 5892
5917 5917 5917 5917 5917 5916 5914 5912 5911 5909 5907 5905 5903 5902 5900 5899 5897 5896 5895 5894 5893 5892 5891 5890 5890 5889 5889 5888 5888 5887 5887 5887 5887 5887 5887 5887 5888 5888 5889 5889 5889 5889 5890 5890 5891 5891 5891 5892 5892
5918 5919 5920 5919 5918 5918 5916 5914 5912 5911 5909 5908 5906 5904 5903 5901 5900 5898 5897 5896 5895 5894 5893 5892 5892 5891 5891 5890 5890 5889 5889 5889 5889 5889 5889 5889 5889 5889 5890 5890 5890 5891 5891 5891 5891 5891 5891 5892 5892
5919 5920 5921 5920 5918 5919 5918 5916 5914 5913 5911 5910 5908 5906 5905 5903 5902 5901 5900 5898 5897 5896 5895 5894 5893 5893 5892 5892 5891 5891 5891 5891 5891 5891 5890 5891 5891 5891 5891 5891 5891 5892 5892 5892 5892 5892 5892 5892 5892
5919 5920 5920 5919 5918 5918 5917 5917 5916 5914 5913 5912 5910 5908 5907 5905 5904 5903 5902 5901 5899 5898 5897 5896 5895 5894 5894 5893 5893 5893 5893 5892 5892 5892 5892 5892 5892 5892 5892 5892 5892 5892 5893 5892 5892 5892 5892 5892 5891
5917 5918 5918 5918 5918 5918 5918 5917 5915 5914 5913 5913 5912 5910 5909 5907 5906 5905 5904 5902 5901 5900 5899 5898 5897 5896 5895 5895 5894 5894 5894 5894 5893 5893 5893 5893 5893 5893 5893 5893 5893 5893 5893 5893 5893 5892 5892 5892 5891
5916 5916 5917 5918 5919 5918 5918 5916 5914 5914 5913 5913 5912 5911 5909 5909 5908 5906 5905 5904 5903 5902 5901 5899 5898 5897 5897 5896 5896 5895 5895 5895 5894 5894 5894 5894 5894 5894 5894 5893 5893 5893 5893 5893 5893 5892 5892 5891 5891
5913 5915 5916 5917 5917 5917 5916 5916 5914 5912 5912 5912 5911 5911 5910 5909 5908 5907 5906 5905 5904 5903 5902 5901 5900 5899 5898 5897 5897 5896 5896 5896 5895 5895 5895 5894 5894 5894 5894 5894 5894 5893 5893 5893 5892 5892 5891 5890 5890
5910 5912 5913 5914 5915 5915 5916 5916 5913 5911 5911 5912 5912 5911 5911 5910 5909 5908 5907 5906 5905 5904 5903 5902 5901 5900 5899 5898 5898 5897 5897 5896 5896 5895 5895 5895 5894 5894 5894 5894 5894 5893 5893 5893 5892 5892 5891 5890 5889
5907 5910 5911 5911 5912 5912 5913 5914 5913 5911 5911 5911 5911 5910 5910 5909 5909 5908 5907 5907 5906 5905 5904 5903 5902 5901 5900 5899 5898 5898 5897 5897 5896 5896 5895 5895 5894 5894 5894 5893 5893 5893 5893 5892 5892 5891 5890 5889 5889
5902 5906 5909 5910 5911 5911 5911 5911 5913 5911 5910 5910 5910 5909 5909 5908 5908 5907 5906 5906 5906 5905 5904 5904 5903 5902 5901 5900 5899 5899 5898 5898 5897 5896 5896 5895 5895 5894 5894 5893 5893 5892 5892 5891 5890 5890 5889 5888 5887
5898 5901 5907 5909 5909 5909 5909 5909 5910 5909 5908 5908 5908 5908 5907 5907 5907 5906 5906 5905 5905 5904 5904 5903 5903 5902 5901 5901 5900 5899 5899 5898 5897 5897 5896 5895 5895 5894 5893 5893 5892 5892 5891 5890 5889 5889 5888 5887 5886
5895 5898 5903 5905 5905 5906 5906 5906 5906 5906 5906 5906 5906 5906 5906 5905 5905 5905 5904 5903 5904 5903 5903 5903 5902 5902 5901 5900 5900 5899 5898 5898 5897 5896 5896 5895 5894 5894 5893 5892 5891 5891 5890 5889 5888 5887 5887 5886 5884
5890 5893 5896 5900 5901 5903 5902 5902 5900 5902 5903 5904 5904 5903 5903 5903 5903 5903 5902 5902 5902 5902 5902 5902 5902 5901 5901 5900 5899 5898 5897 5897 5896 5896 5895 5895 5894 5893 5892 5891 5890 5890 5889 5888 5887 5886 5885 5884 5883
5885 5888 5892 5895 5897 5899 5900 5900 5897 5900 5900 5900 5900 5900 5900 5900 5901 5900 5900 5900 5901 5901 5900 5900 5900 5900 5899 5899 5898 5897 5896 5896 5895 5895 5894 5894 5893 5892 5891 5890 5890 5889 5888 5887 5886 5885 5884 5883 5881